{"data":{"norad_id":52646,"epoch":"2026-09-20T04:31:59.267424Z","epoch_age_seconds":93311,"freshness":"FRESH","line1":"1 52646U 22052BA  26263.18888041  .00000586  00000+0  29143-4 0  9992","line2":"2 52646  53.1591  93.2334 0001221  93.1008 267.0134 15.33547051240676","mean_motion":15.33547051,"eccentricity":0.0001221,"inclination_deg":53.1591,"raan_deg":93.2334,"arg_perigee_deg":93.1008,"mean_anomaly_deg":267.0134,"bstar":2.9143e-5,"rev_number":24067,"period_min":93.899955600384,"perigee_km":464.40398306119,"apogee_km":466.07513561698,"semimajor_km":6843.3765593391,"source":"CELESTRAK","updated_at":"2026-09-20T09:00:40.099165Z"}}